Weather History for New Richmond, WI

Change the Weather History Date:

Sunday, January 6, 2013

  Actual Average (KMSP) Record (KMSP)
Temperature  
Mean Temperature 16 °F 16 °F  
Max Temperature 21 °F 23 °F 49 °F (1900)
Min Temperature 12 °F 8 °F -27 °F (1912)
Degree Days  
Heating Degree Days 48 49  
Month to date heating degree days 294  
Since 1 July heating degree days 3317  
Cooling Degree Days 0 0  
Month to date cooling degree days 0  
Year to date cooling degree days 0  
Moisture  
Dew Point 11 °F    
Average Humidity 81    
Maximum Humidity 100    
Minimum Humidity 58    
Precipitation  
Precipitation 0.00 in 0.03 in 0.40 in (1967)
Month to date precipitation 0.19  
Year to date precipitation 0.19  
Snow  
Snow 0.00 in 0.40 in 5.20 in (1932)
Month to date snowfall 2.3  
Since 1 July snowfall 24.1  
Snow Depth -    
Sea Level Pressure  
Sea Level Pressure 30.11 in    
Wind  
Wind Speed 7 mph (WSW)    
Max Wind Speed 13 mph    
Max Gust Speed -    
Visibility 10 miles    
Events      
T = Trace of Precipitation, MM = Missing Value Source: NWS Daily Summary

Daily Weather History Graph

Daily Weather History Graph

Search for Another Location

Airport:

Trip Planner

Search our weather history database for the weather conditions in past years. The results will help you decide how hot, cold, wet, or windy it might be!

Date:

Astronomy

Jan. 06, 2013 Rise Set
Actual Time 7:48 AM CST 4:44 PM CST
Civil Twilight 7:15 AM CST 5:17 PM CST
Nautical Twilight 6:38 AM CST 5:54 PM CST
Astronomical Twilight 6:02 AM CST 6:30 PM CST
Moon 1:57 AM CST (1/6) 12:16 PM CST (1/6)
Length of Visible Light 10h 02m
Length of Day
8h 55m
Waning Crescent, 33% of the Moon is Illuminated
Jan 6
Waning Crescent
Jan 11
New
Jan 18
First Quarter
Jan 26
Full
Feb 3
Last Quarter

Hourly Weather History & Observations

Time (CST) Temp. Windchill Dew Point Humidity Pressure Visibility Wind Dir Wind Speed Gust Speed Precip Events Conditions
12:15 AM 19.4 °F 9.5 °F 17.6 °F 93% 29.96 in 10.0 mi WNW 8.1 mph - N/A   Overcast
12:35 AM 19.4 °F 8.6 °F 17.6 °F 93% 29.97 in 7.0 mi WNW 9.2 mph - N/A   Overcast
12:55 AM 19.4 °F 10.4 °F 17.6 °F 93% 29.97 in 7.0 mi WNW 6.9 mph - N/A   Overcast
1:15 AM 21.2 °F 10.9 °F 17.6 °F 86% 29.98 in 7.0 mi WNW 9.2 mph - N/A   Overcast
1:35 AM 21.2 °F 10.1 °F 17.6 °F 86% 29.99 in 10.0 mi WNW 10.4 mph - N/A   Mostly Cloudy
1:55 AM 19.4 °F 7.9 °F 17.6 °F 93% 30.00 in 10.0 mi NW 10.4 mph - N/A   Scattered Clouds
2:15 AM 19.4 °F 9.5 °F 15.8 °F 86% 30.01 in 10.0 mi NW 8.1 mph - N/A   Clear
2:35 AM 17.6 °F 8.2 °F 14.0 °F 86% 30.01 in 10.0 mi NW 6.9 mph - N/A   Clear
2:55 AM 15.8 °F 7.2 °F 14.0 °F 93% 30.02 in 10.0 mi WNW 5.8 mph - N/A   Clear
3:15 AM 17.6 °F 5.0 °F 15.8 °F 93% 30.03 in 10.0 mi WNW 11.5 mph - N/A   Clear
3:35 AM 17.6 °F 5.7 °F 15.8 °F 93% 30.03 in 10.0 mi WNW 10.4 mph - N/A   Clear
3:55 AM 17.6 °F 5.7 °F 15.8 °F 93% 30.03 in 10.0 mi NW 10.4 mph - N/A   Scattered Clouds
4:15 AM 17.6 °F 6.4 °F 15.8 °F 93% 30.03 in 10.0 mi NW 9.2 mph - N/A   Scattered Clouds
4:35 AM 17.6 °F 5.0 °F 15.8 °F 93% 30.04 in 10.0 mi WNW 11.5 mph - N/A   Clear
4:55 AM 17.6 °F 6.4 °F 15.8 °F 93% 30.04 in 10.0 mi NW 9.2 mph - N/A   Clear
5:35 AM 15.8 °F 2.7 °F 14.0 °F 93% 30.06 in 10.0 mi NW 11.5 mph - N/A   Scattered Clouds
5:55 AM 14.0 °F 2.9 °F 12.2 °F 93% 30.07 in 10.0 mi WNW 8.1 mph - N/A   Clear
6:15 AM 14.0 °F 3.9 °F 12.2 °F 93% 30.09 in 10.0 mi NW 6.9 mph - N/A   Clear
6:35 AM 14.0 °F 3.9 °F 12.2 °F 93% 30.10 in 10.0 mi WNW 6.9 mph - N/A   Clear
6:55 AM 14.0 °F 5.1 °F 12.2 °F 93% 30.11 in 10.0 mi WNW 5.8 mph - N/A   Clear
7:15 AM 14.0 °F 3.9 °F 12.2 °F 93% 30.11 in 10.0 mi WNW 6.9 mph - N/A   Clear
7:35 AM 12.2 °F 0.7 °F 10.4 °F 92% 30.12 in 10.0 mi WNW 8.1 mph - N/A   Clear
7:55 AM 12.2 °F 1.7 °F 10.4 °F 92% 30.13 in 10.0 mi WNW 6.9 mph - N/A   Clear
8:35 AM 12.2 °F 0.7 °F 12.2 °F 100% 30.15 in 10.0 mi WNW 8.1 mph - N/A   Clear
8:55 AM 12.2 °F 0.7 °F 12.2 °F 100% 30.16 in 10.0 mi NW 8.1 mph - N/A   Clear
9:15 AM 12.2 °F 2.9 °F 10.4 °F 92% 30.16 in 10.0 mi NW 5.8 mph - N/A   Clear
9:35 AM 14.0 °F 3.9 °F 10.4 °F 86% 30.17 in 10.0 mi WNW 6.9 mph - N/A   Clear
9:55 AM 14.0 °F - 10.4 °F 86% 30.17 in 10.0 mi Calm Calm - N/A   Clear
10:15 AM 14.0 °F 6.5 °F 10.4 °F 86% 30.17 in 10.0 mi NW 4.6 mph - N/A   Clear
10:35 AM 15.8 °F 10.2 °F 10.4 °F 79% 30.18 in 10.0 mi WNW 3.5 mph - N/A   Clear
10:55 AM 17.6 °F 9.3 °F 10.4 °F 73% 30.18 in 10.0 mi NW 5.8 mph - N/A   Clear
11:35 AM 17.6 °F 10.7 °F 10.4 °F 73% 30.18 in 10.0 mi West 4.6 mph - N/A   Clear
12:15 PM 19.4 °F - 10.4 °F 68% 30.17 in 10.0 mi Calm Calm - N/A   Clear
12:35 PM 21.2 °F 14.9 °F 10.4 °F 63% 30.17 in 10.0 mi West 4.6 mph - N/A   Clear
12:55 PM 19.4 °F 11.5 °F 10.4 °F 68% 30.17 in 10.0 mi SW 5.8 mph - N/A   Clear
1:15 PM 21.2 °F 13.6 °F 10.4 °F 63% 30.17 in 10.0 mi WSW 5.8 mph - N/A   Clear
1:35 PM 21.2 °F 13.6 °F 10.4 °F 63% 30.17 in 10.0 mi SW 5.8 mph - N/A   Clear
1:55 PM 21.2 °F 14.9 °F 10.4 °F 63% 30.17 in 10.0 mi WSW 4.6 mph - N/A   Clear
2:15 PM 21.2 °F 16.4 °F 10.4 °F 63% 30.17 in 10.0 mi WSW 3.5 mph - N/A   Clear
2:35 PM 21.2 °F - 10.4 °F 63% 30.18 in 10.0 mi Calm Calm - N/A   Clear
2:55 PM 21.2 °F - 8.6 °F 58% 30.18 in 10.0 mi Calm Calm - N/A   Clear
3:15 PM 21.2 °F - 10.4 °F 63% 30.19 in 10.0 mi Calm Calm - N/A   Clear
3:35 PM 19.4 °F - 8.6 °F 63% 30.18 in 10.0 mi Calm Calm - N/A   Clear
3:55 PM 21.2 °F 16.4 °F 10.4 °F 63% 30.18 in 10.0 mi South 3.5 mph - N/A   Clear
4:15 PM 21.2 °F 14.9 °F 10.4 °F 63% 30.18 in 10.0 mi SSE 4.6 mph - N/A   Clear
4:35 PM 19.4 °F 14.3 °F 8.6 °F 63% 30.17 in 10.0 mi SSE 3.5 mph - N/A   Clear
4:55 PM 17.6 °F 10.7 °F 8.6 °F 68% 30.18 in 10.0 mi South 4.6 mph - N/A   Clear
5:15 PM 17.6 °F 9.3 °F 8.6 °F 68% 30.17 in 10.0 mi South 5.8 mph - N/A   Clear
5:35 PM 17.6 °F 9.3 °F 8.6 °F 68% 30.17 in 10.0 mi South 5.8 mph - N/A   Clear
6:15 PM 15.8 °F 6.1 °F 8.6 °F 73% 30.17 in 10.0 mi SSW 6.9 mph - N/A   Clear
6:35 PM 15.8 °F 6.1 °F 8.6 °F 73% 30.16 in 10.0 mi South 6.9 mph - N/A   Clear
6:55 PM 14.0 °F 3.9 °F 8.6 °F 79% 30.16 in 10.0 mi South 6.9 mph - N/A   Clear
7:15 PM 14.0 °F 5.1 °F 8.6 °F 79% 30.17 in 10.0 mi South 5.8 mph - N/A   Clear
7:35 PM 12.2 °F 2.9 °F 8.6 °F 85% 30.16 in 10.0 mi South 5.8 mph - N/A   Clear
7:55 PM 14.0 °F 6.5 °F 8.6 °F 79% 30.16 in 10.0 mi SSE 4.6 mph - N/A   Clear
8:15 PM 12.2 °F 4.3 °F 8.6 °F 85% 30.15 in 10.0 mi SSE 4.6 mph - N/A   Clear
8:35 PM 12.2 °F 2.9 °F 6.8 °F 79% 30.14 in 10.0 mi SSE 5.8 mph - N/A   Clear
9:35 PM 12.2 °F 0.7 °F 8.6 °F 85% 30.10 in 10.0 mi SSE 8.1 mph - N/A   Clear
9:55 PM 12.2 °F -0.2 °F 8.6 °F 85% 30.09 in 10.0 mi SSE 9.2 mph - N/A   Clear
10:15 PM 14.0 °F 2.9 °F 8.6 °F 79% 30.08 in 10.0 mi SSE 8.1 mph - N/A   Clear
10:35 PM 12.2 °F 1.7 °F 8.6 °F 85% 30.09 in 10.0 mi South 6.9 mph - N/A   Clear
10:55 PM 14.0 °F 2.9 °F 10.4 °F 86% 30.07 in 10.0 mi SSE 8.1 mph - N/A   Clear
11:35 PM 14.0 °F 2.9 °F 10.4 °F 86% 30.05 in 10.0 mi SSE 8.1 mph - N/A   Clear
11:55 PM 14.0 °F -0.2 °F 10.4 °F 86% 30.04 in 10.0 mi South 12.7 mph - N/A   Clear